Location: Huesca
(42.1318°N, 0.4078°W)
Time: 23:17:34
(UTC+02:00)

YUBILEINY - Visible Passes

Search period start: 16 April 2026 00:00
Search period end: 26 April 2026 00:00
Orbit: 1477 x 1509 km, 82.5° (Epoch: 16 April)

Date Brightness Start Highest point End Pass type
(mag) Time Alt. Az. Time Alt. Az. Time Alt. Az.
16 Apr ? 01:51:06 10° N 01:59:15 73° NE 01:59:15 73° NE visible
16 Apr ? 03:49:23 10° NNW 03:55:09 23° WNW 03:55:09 23° WNW visible
17 Apr ? 01:01:41 10° N 01:09:55 44° ENE 01:10:01 44° ENE visible
17 Apr ? 02:58:39 10° NNW 03:05:54 41° WNW 03:05:54 41° WNW visible
18 Apr ? 00:12:46 10° NNE 00:19:36 25° ENE 00:20:47 24° ENE visible
18 Apr ? 02:08:35 10° NNW 02:16:41 72° WNW 02:16:41 72° WNW visible
18 Apr ? 04:08:35 10° NW 04:12:25 14° WNW 04:12:35 14° WNW visible
18 Apr ? 23:25:06 10° NNE 23:28:48 13° NE 23:31:34 11° ENE visible
19 Apr ? 01:18:54 10° N 01:27:28 65° ENE 01:27:28 65° ENE visible
19 Apr ? 03:16:44 10° NNW 03:23:22 28° WNW 03:23:22 28° WNW visible
20 Apr ? 00:29:37 10° N 00:37:32 37° ENE 00:38:15 36° E visible
20 Apr ? 02:26:15 10° NNW 02:34:09 50° W 02:34:09 50° W visible
20 Apr ? 23:40:55 10° NNE 23:47:05 21° ENE 23:49:03 19° E visible
21 Apr ? 01:36:18 10° N 01:44:57 87° WNW 01:44:57 87° WNW visible
21 Apr ? 03:35:24 10° NW 03:40:31 17° WNW 03:40:51 17° W visible
21 Apr ? 22:54:49 10° NE 22:56:08 10° NE 22:57:27 10° ENE visible
22 Apr ? 00:46:45 10° N 00:55:17 55° ENE 00:55:46 54° E visible
22 Apr ? 02:44:11 10° NNW 02:51:38 33° W 02:51:40 33° W visible
22 Apr ? 23:57:36 10° N 00:05:08 31° ENE 00:06:35 30° E visible
23 Apr ? 01:53:53 10° NNW 02:02:24 60° W 02:02:29 60° W visible
23 Apr ? 23:09:13 10° NNE 23:14:32 17° ENE 23:17:25 15° E visible
24 Apr ? 01:04:04 10° N 01:12:52 80° E 01:13:19 78° ESE visible
24 Apr ? 03:02:32 10° NW 03:08:34 21° WNW 03:09:13 21° W visible
25 Apr ? 00:14:37 10° N 00:22:57 46° ENE 00:24:09 44° E visible
25 Apr ? 02:11:42 10° NNW 02:19:35 40° W 02:20:04 40° W visible
25 Apr ? 23:25:38 10° NNE 23:32:41 26° ENE 23:35:00 23° E visible
